NSZ2616 EFHK-ESSA

Flight info

Callsign NSZ2616
Flight time 0h 42m
Altitude 34000
Route ADIVO Y365 POGOK DCT RUNGA N872 XILAN
Aircraft B738/M-SDE2E3FGHIRWXY/LB1

Departure

Time 2026-05-07 17:18
Airport Helsinki Vantaa Airport (EFHK)

Arrival

Time 2026-05-07 18:00
Airport Stockholm-Arlanda Airport (ESSA)
Time Latitude Longitude Altitude Speed Heading
2026-05-07 16:32 60.31747 24.97127 187 ft 0 kts 244°
2026-05-07 17:06 60.31750 24.97139 187 ft 2 kts 243°
2026-05-07 17:07 60.31757 24.97166 187 ft 2 kts 244°
2026-05-07 17:07 60.31763 24.97193 187 ft 2 kts 244°
2026-05-07 17:07 60.31769 24.97222 187 ft 2 kts 269°
2026-05-07 17:07 60.31765 24.97251 187 ft 2 kts 304°
2026-05-07 17:08 60.31758 24.97267 187 ft 0 kts 330°
2026-05-07 17:08 60.31751 24.97273 187 ft 0 kts 333°
2026-05-07 17:10 60.31753 24.97271 187 ft 2 kts 333°
2026-05-07 17:10 60.31811 24.97211 187 ft 13 kts 333°
2026-05-07 17:10 60.31900 24.97120 187 ft 15 kts 332°
2026-05-07 17:11 60.32013 24.96999 187 ft 18 kts 332°
2026-05-07 17:11 60.32123 24.96877 187 ft 17 kts 332°
2026-05-07 17:11 60.32226 24.96758 187 ft 16 kts 328°
2026-05-07 17:11 60.32305 24.96664 187 ft 9 kts 330°
2026-05-07 17:12 60.32327 24.96639 187 ft 2 kts 330°
2026-05-07 17:12 60.32334 24.96631 187 ft 0 kts 330°
2026-05-07 17:13 60.32337 24.96628 187 ft 2 kts 330°
2026-05-07 17:13 60.32410 24.96543 187 ft 21 kts 330°
2026-05-07 17:14 60.32537 24.96397 187 ft 20 kts 329°
2026-05-07 17:14 60.32658 24.96253 187 ft 19 kts 330°
2026-05-07 17:14 60.32773 24.96119 187 ft 18 kts 330°
2026-05-07 17:14 60.32887 24.95986 187 ft 18 kts 329°
2026-05-07 17:15 60.33000 24.95853 187 ft 18 kts 331°
2026-05-07 17:15 60.33092 24.95742 187 ft 11 kts 315°
2026-05-07 17:15 60.33155 24.95614 187 ft 14 kts 319°
2026-05-07 17:15 60.33205 24.95442 187 ft 14 kts 263°
2026-05-07 17:16 60.33156 24.95277 187 ft 15 kts 227°
2026-05-07 17:16 60.33107 24.95079 187 ft 15 kts 270°
2026-05-07 17:16 60.33112 24.94869 187 ft 14 kts 272°
2026-05-07 17:16 60.33115 24.94669 187 ft 13 kts 272°
2026-05-07 17:17 60.33120 24.94482 187 ft 12 kts 269°
2026-05-07 17:17 60.33087 24.94330 187 ft 10 kts 226°
2026-05-07 17:17 60.32991 24.94120 187 ft 53 kts 227°
2026-05-07 17:17 60.32547 24.93141 188 ft 133 kts 227°
2026-05-07 17:18 60.31813 24.91521 579 ft 167 kts 225°
2026-05-07 17:18 60.30986 24.89893 1447 ft 176 kts 227°
2026-05-07 17:18 60.30345 24.87826 2385 ft 179 kts 253°
2026-05-07 17:18 60.30180 24.85414 3030 ft 178 kts 278°
2026-05-07 17:19 60.30585 24.82979 3356 ft 193 kts 297°
2026-05-07 17:19 60.31199 24.80413 3752 ft 209 kts 296°
2026-05-07 17:19 60.31768 24.77587 4007 ft 232 kts 287°
2026-05-07 17:19 60.31920 24.74211 4007 ft 254 kts 270°
2026-05-07 17:20 60.31782 24.70621 3997 ft 259 kts 267°
2026-05-07 17:20 60.31638 24.66992 3992 ft 259 kts 269°
2026-05-07 17:20 60.31527 24.63313 4177 ft 270 kts 269°
2026-05-07 17:20 60.31422 24.59603 5125 ft 263 kts 269°
2026-05-07 17:21 60.31244 24.55954 5825 ft 267 kts 263°
2026-05-07 17:21 60.30888 24.52287 6564 ft 271 kts 259°
2026-05-07 17:21 60.30472 24.48607 7358 ft 271 kts 260°
2026-05-07 17:21 60.30063 24.44912 8231 ft 270 kts 260°
2026-05-07 17:22 60.29676 24.41209 9046 ft 271 kts 260°
2026-05-07 17:22 60.29311 24.37518 9786 ft 272 kts 261°
2026-05-07 17:22 60.28948 24.33791 10539 ft 275 kts 259°
2026-05-07 17:22 60.28571 24.29913 11079 ft 288 kts 259°
2026-05-07 17:23 60.28182 24.25904 11461 ft 301 kts 259°
2026-05-07 17:23 60.27774 24.21750 12250 ft 306 kts 259°
2026-05-07 17:23 60.27356 24.17537 13044 ft 308 kts 260°
2026-05-07 17:23 60.26940 24.13383 13906 ft 307 kts 260°
2026-05-07 17:24 60.26516 24.09167 14719 ft 309 kts 260°
2026-05-07 17:24 60.26095 24.04974 15509 ft 311 kts 260°
2026-05-07 17:24 60.25662 24.00664 16304 ft 313 kts 260°
2026-05-07 17:24 60.25237 23.96446 17097 ft 314 kts 260°
2026-05-07 17:25 60.24801 23.92129 17838 ft 316 kts 260°
2026-05-07 17:25 60.24362 23.87798 18643 ft 317 kts 260°
2026-05-07 17:25 60.23918 23.83443 19329 ft 318 kts 260°
2026-05-07 17:25 60.23478 23.79127 19995 ft 321 kts 260°
2026-05-07 17:26 60.23029 23.74739 20807 ft 319 kts 260°
2026-05-07 17:26 60.22579 23.70358 21374 ft 323 kts 259°
2026-05-07 17:26 60.22129 23.65995 21964 ft 325 kts 259°
2026-05-07 17:26 60.21663 23.61492 22490 ft 329 kts 259°
2026-05-07 17:27 60.21199 23.57028 23079 ft 330 kts 259°
2026-05-07 17:27 60.20734 23.52567 23689 ft 331 kts 259°
2026-05-07 17:27 60.20261 23.48048 24336 ft 331 kts 259°
2026-05-07 17:27 60.19785 23.43518 24743 ft 336 kts 259°
2026-05-07 17:28 60.19304 23.38953 25157 ft 339 kts 259°
2026-05-07 17:28 60.18809 23.34271 25689 ft 342 kts 258°
2026-05-07 17:28 60.18310 23.29574 26130 ft 345 kts 258°
2026-05-07 17:28 60.17813 23.24905 26673 ft 346 kts 258°
2026-05-07 17:29 60.17305 23.20151 27065 ft 350 kts 258°
2026-05-07 17:29 60.16794 23.15393 27554 ft 352 kts 258°
2026-05-07 17:29 60.16278 23.10607 27934 ft 355 kts 258°
2026-05-07 17:29 60.15752 23.05740 28345 ft 358 kts 258°
2026-05-07 17:30 60.15223 23.00861 28819 ft 359 kts 258°
2026-05-07 17:30 60.14691 22.95968 29155 ft 363 kts 258°
2026-05-07 17:30 60.14151 22.91035 29569 ft 365 kts 258°
2026-05-07 17:30 60.13607 22.86082 29986 ft 366 kts 258°
2026-05-07 17:31 60.13049 22.81016 30236 ft 372 kts 258°
2026-05-07 17:31 60.12492 22.75977 30669 ft 372 kts 258°
2026-05-07 17:31 60.11934 22.70952 30968 ft 375 kts 259°
2026-05-07 17:31 60.11365 22.65849 31470 ft 373 kts 259°
2026-05-07 17:32 60.10798 22.60780 31751 ft 376 kts 259°
2026-05-07 17:32 60.10220 22.55631 32155 ft 375 kts 259°
2026-05-07 17:32 60.09645 22.50529 32547 ft 374 kts 258°
2026-05-07 17:32 60.09266 22.47174 32737 ft 376 kts 258°
2026-05-07 17:33 60.08492 22.40352 33058 ft 378 kts 258°
2026-05-07 17:33 60.07904 22.35190 33452 ft 376 kts 258°
2026-05-07 17:33 60.07316 22.30048 33607 ft 378 kts 258°
2026-05-07 17:33 60.06733 22.24969 33931 ft 378 kts 257°
2026-05-07 17:34 60.05535 22.14594 34163 ft 386 kts 258°
2026-05-07 17:34 60.04306 22.04023 34145 ft 395 kts 257°
2026-05-07 17:35 60.03056 21.93370 34172 ft 395 kts 258°
2026-05-07 17:35 60.01785 21.82612 34066 ft 393 kts 258°
2026-05-07 17:36 60.00525 21.72018 34057 ft 395 kts 258°
2026-05-07 17:36 59.99254 21.61415 34193 ft 396 kts 258°
2026-05-07 17:37 59.97965 21.50744 34117 ft 394 kts 258°
2026-05-07 17:37 59.96664 21.40056 34098 ft 397 kts 258°
2026-05-07 17:38 59.95364 21.29458 34115 ft 396 kts 257°
2026-05-07 17:38 59.94044 21.18779 34144 ft 397 kts 257°
2026-05-07 17:39 59.92717 21.08113 34193 ft 399 kts 257°
2026-05-07 17:39 59.92047 21.02752 34088 ft 397 kts 257°
2026-05-07 17:39 59.91378 20.97418 34119 ft 398 kts 257°
2026-05-07 17:40 59.90023 20.86688 33753 ft 401 kts 258°
2026-05-07 17:40 59.89341 20.81326 33397 ft 398 kts 258°
2026-05-07 17:40 59.88660 20.75988 32920 ft 393 kts 258°
2026-05-07 17:41 59.87993 20.70771 32580 ft 390 kts 258°
2026-05-07 17:41 59.87327 20.65586 32187 ft 388 kts 258°
2026-05-07 17:41 59.86654 20.60367 31786 ft 387 kts 258°
2026-05-07 17:41 59.85991 20.55240 31400 ft 385 kts 258°
2026-05-07 17:42 59.85326 20.50118 30886 ft 381 kts 258°
2026-05-07 17:42 59.84672 20.45094 30257 ft 378 kts 258°
2026-05-07 17:42 59.84018 20.40082 29696 ft 374 kts 258°
2026-05-07 17:42 59.83363 20.35078 29159 ft 369 kts 258°
2026-05-07 17:43 59.82718 20.30180 28578 ft 366 kts 257°
2026-05-07 17:43 59.82081 20.25349 27940 ft 364 kts 258°
2026-05-07 17:43 59.81435 20.20461 27373 ft 361 kts 258°
2026-05-07 17:43 59.80801 20.15679 26765 ft 358 kts 258°
2026-05-07 17:44 59.80173 20.10954 26206 ft 355 kts 258°
2026-05-07 17:44 59.79544 20.06241 25533 ft 354 kts 258°
2026-05-07 17:44 59.78914 20.01527 24877 ft 353 kts 258°
2026-05-07 17:44 59.78287 19.96849 24217 ft 353 kts 258°
2026-05-07 17:45 59.77664 19.92221 23735 ft 348 kts 258°
2026-05-07 17:45 59.77037 19.87585 23144 ft 346 kts 258°
2026-05-07 17:45 59.76414 19.82982 22556 ft 345 kts 258°
2026-05-07 17:45 59.75794 19.78420 22093 ft 340 kts 258°
2026-05-07 17:46 59.75185 19.73950 21558 ft 337 kts 258°
2026-05-07 17:46 59.74576 19.69490 20892 ft 338 kts 258°
2026-05-07 17:46 59.73965 19.65029 20430 ft 333 kts 258°
2026-05-07 17:46 59.73367 19.60683 20000 ft 330 kts 258°
2026-05-07 17:47 59.72758 19.56261 19551 ft 332 kts 258°
2026-05-07 17:47 59.72156 19.51892 19127 ft 331 kts 258°
2026-05-07 17:47 59.71549 19.47505 18676 ft 330 kts 258°
2026-05-07 17:47 59.70945 19.43163 18258 ft 329 kts 258°
2026-05-07 17:48 59.70576 19.38801 17745 ft 322 kts 273°
2026-05-07 17:48 59.71045 19.34517 17141 ft 319 kts 290°
2026-05-07 17:48 59.71929 19.30506 16518 ft 319 kts 294°
2026-05-07 17:48 59.72854 19.26537 15999 ft 317 kts 293°
2026-05-07 17:49 59.73723 19.22509 15422 ft 316 kts 292°
2026-05-07 17:49 59.74513 19.18520 14911 ft 313 kts 291°
2026-05-07 17:49 59.75266 19.14500 14364 ft 312 kts 290°
2026-05-07 17:49 59.76001 19.10464 13827 ft 311 kts 290°
2026-05-07 17:50 59.76722 19.06462 13293 ft 310 kts 290°
2026-05-07 17:50 59.77446 19.02432 12804 ft 307 kts 290°
2026-05-07 17:50 59.78158 18.98474 12289 ft 306 kts 290°
2026-05-07 17:50 59.78867 18.94527 11776 ft 304 kts 290°
2026-05-07 17:51 59.79575 18.90589 11319 ft 300 kts 290°
2026-05-07 17:51 59.80184 18.86758 11102 ft 290 kts 283°
2026-05-07 17:51 59.80416 18.82850 10939 ft 279 kts 275°
2026-05-07 17:51 59.80480 18.79072 10721 ft 269 kts 273°
2026-05-07 17:52 59.80515 18.75299 10014 ft 278 kts 273°
2026-05-07 17:52 59.80547 18.71533 9608 ft 275 kts 273°
2026-05-07 17:52 59.80578 18.67742 9091 ft 275 kts 273°
2026-05-07 17:52 59.80609 18.63928 8583 ft 275 kts 273°
2026-05-07 17:53 59.80639 18.60183 8160 ft 274 kts 273°
2026-05-07 17:53 59.80665 18.56419 7733 ft 273 kts 273°
2026-05-07 17:53 59.80691 18.52613 7197 ft 274 kts 273°
2026-05-07 17:53 59.80721 18.48888 6795 ft 273 kts 273°
2026-05-07 17:54 59.80749 18.45134 6393 ft 272 kts 273°
2026-05-07 17:54 59.80777 18.41379 5985 ft 272 kts 273°
2026-05-07 17:54 59.80806 18.37627 5443 ft 273 kts 273°
2026-05-07 17:54 59.80838 18.33861 5081 ft 273 kts 272°
2026-05-07 17:55 59.80875 18.30155 4982 ft 261 kts 272°
2026-05-07 17:55 59.80915 18.26615 4801 ft 257 kts 273°
2026-05-07 17:55 59.80954 18.23080 4606 ft 256 kts 272°
2026-05-07 17:55 59.80995 18.19527 4477 ft 258 kts 272°
2026-05-07 17:56 59.81037 18.15959 4229 ft 255 kts 273°
2026-05-07 17:56 59.81075 18.12531 4016 ft 249 kts 273°
2026-05-07 17:56 59.80957 18.09053 3622 ft 253 kts 255°
2026-05-07 17:56 59.80117 18.06103 3379 ft 247 kts 226°
2026-05-07 17:57 59.78851 18.03887 3191 ft 235 kts 217°
2026-05-07 17:57 59.78027 18.02556 3058 ft 229 kts 217°
2026-05-07 17:57 59.76315 18.00181 2665 ft 221 kts 200°
2026-05-07 17:57 59.74866 17.99338 2201 ft 221 kts 187°
2026-05-07 17:58 59.73391 17.98893 1844 ft 204 kts 184°
2026-05-07 17:58 59.72067 17.98435 1589 ft 185 kts 186°
2026-05-07 17:58 59.70862 17.98002 1355 ft 167 kts 185°
2026-05-07 17:58 59.69784 17.97622 1126 ft 151 kts 185°
2026-05-07 17:59 59.68745 17.97253 931 ft 152 kts 186°
2026-05-07 17:59 59.67730 17.96893 717 ft 146 kts 186°
2026-05-07 17:59 59.66724 17.96548 539 ft 147 kts 185°
2026-05-07 17:59 59.65704 17.96183 326 ft 153 kts 186°
2026-05-07 18:00 59.64653 17.95801 130 ft 150 kts 186°
2026-05-07 18:00 59.63733 17.95472 116 ft 112 kts 191°
2026-05-07 18:00 59.63164 17.95260 130 ft 47 kts 193°
2026-05-07 18:00 59.62937 17.95041 135 ft 24 kts 221°
2026-05-07 18:01 59.62844 17.94848 135 ft 8 kts 262°
2026-05-07 18:01 59.62889 17.94762 134 ft 11 kts 356°
2026-05-07 18:01 59.62983 17.94787 133 ft 17 kts 11°
2026-05-07 18:01 59.63113 17.94838 130 ft 20 kts
2026-05-07 18:02 59.63410 17.94945 123 ft 22 kts 10°
2026-05-07 18:02 59.63572 17.95003 119 ft 24 kts 10°
2026-05-07 18:02 59.63741 17.95065 114 ft 25 kts 11°
2026-05-07 18:03 59.63922 17.95130 110 ft 26 kts 10°
2026-05-07 18:03 59.64105 17.95197 107 ft 27 kts 11°
2026-05-07 18:03 59.64294 17.95265 105 ft 27 kts 10°
2026-05-07 18:03 59.64478 17.95332 104 ft 26 kts 10°
2026-05-07 18:04 59.64657 17.95398 105 ft 25 kts 11°
2026-05-07 18:04 59.64830 17.95460 106 ft 24 kts 10°
2026-05-07 18:04 59.64995 17.95511 108 ft 23 kts
2026-05-07 18:04 59.65148 17.95457 111 ft 21 kts 345°
2026-05-07 18:05 59.65281 17.95385 114 ft 18 kts 346°
2026-05-07 18:05 59.65399 17.95322 117 ft 16 kts 345°
2026-05-07 18:05 59.65512 17.95263 120 ft 19 kts 346°
2026-05-07 18:05 59.65641 17.95195 123 ft 17 kts 343°
2026-05-07 18:06 59.65743 17.95112 125 ft 15 kts 306°
2026-05-07 18:06 59.65738 17.94910 125 ft 17 kts 256°
2026-05-07 18:06 59.65708 17.94676 125 ft 17 kts 257°
2026-05-07 18:06 59.65678 17.94437 123 ft 20 kts 256°
2026-05-07 18:07 59.65642 17.94153 120 ft 21 kts 256°
2026-05-07 18:07 59.65604 17.93853 116 ft 23 kts 255°
2026-05-07 18:07 59.65564 17.93542 112 ft 24 kts 255°
2026-05-07 18:07 59.65523 17.93219 109 ft 24 kts 256°
2026-05-07 18:08 59.65478 17.92917 108 ft 22 kts 249°
2026-05-07 18:08 59.65414 17.92658 107 ft 19 kts 234°
2026-05-07 18:08 59.65342 17.92511 107 ft 11 kts 215°
2026-05-07 18:08 59.65274 17.92518 107 ft 10 kts 125°
2026-05-07 18:09 59.65250 17.92645 107 ft 9 kts 110°
2026-05-07 18:09 59.65229 17.92762 108 ft 8 kts 109°
2026-05-07 18:09 59.65210 17.92862 109 ft 6 kts 120°
2026-05-07 18:09 59.65182 17.92926 109 ft 5 kts 156°
2026-05-07 18:10 59.65150 17.92914 109 ft 4 kts 204°
2026-05-07 18:10 59.65134 17.92900 109 ft 0 kts 204°